Home   Weather   Detroit   Past weeks

Flag for USA Past Weather in Detroit, Michigan, USA — Yesterday and Last 2 Weeks

Now
24 °F

Overcast.


Feels Like: 14 °F
Forecast: 22 / 28 °F
Wind: 9 mph from West

Location: Detroit City Airport

Current Time: Dec 10, 2016 at 5:52:34 am

Latest Report: Dec 10, 2016 at 4:53 am


Visibility: 10 mi

Pressure: 30.44 "Hg

Humidity: 84%

Dew Point: 20 °F

Location of DetroitLocation

Past Weather in Detroit — Graph

°F

Detroit Temperature Yesterday

Maximum temperature yesterday: 32 °F (at 1:53 pm)
Minimum temperature yesterday: 26 °F (at 12:53 am)
Average temperature yesterday: 28 °F

High & Low Weather Summary for the Past Weeks

 TemperatureHumidityPressure
High57 °F (Nov 30, 12:53 pm)100% (Nov 27, 8:53 am)30.44 "Hg (Nov 27, 8:53 am)
Low24 °F (Dec 10, 3:53 am)45% (Dec 9, 1:53 pm)29.42 "Hg (Nov 29, 12:53 am)
Average38 °F79%30.01 "Hg
* Reported Nov 25 3:53 am — Dec 10 3:53 am, Detroit, Weather by CustomWeather, © 2016

Note: Actual official high and low records may vary slightly from our data, if they occured in-between our weather recording intervals... More about our weather records

Advertising

Detroit Weather History for the Previous 24 Hours

Scroll right to see more
 ConditionsComfort  
Time TempWeatherWind HumidityBarometerVisibility
3:53 am
Sat, Dec 10
24 °FOvercast.8 mph84%30.44 "Hg10 mi
2:53 am25 °FOvercast.12 mph75%30.43 "Hg10 mi
1:53 am25 °FOvercast.8 mph75%30.42 "Hg10 mi
12:53 am25 °FOvercast.8 mph78%30.42 "Hg10 mi
11:53 pm
Fri, Dec 9
26 °FOvercast.9 mph66%30.43 "Hg10 mi
10:53 pm26 °FOvercast.8 mph71%30.43 "Hg10 mi
9:53 pm27 °FOvercast.10 mph69%30.43 "Hg10 mi
8:53 pm27 °FOvercast.9 mph66%30.43 "Hg10 mi
7:53 pm27 °FOvercast.6 mph72%30.43 "Hg10 mi
6:53 pm28 °FOvercast.12 mph61%30.42 "Hg10 mi
5:53 pm29 °FOvercast.12 mph56%30.42 "Hg10 mi
4:53 pm30 °FMore clouds than sun.10 mph51%30.40 "Hg10 mi
3:53 pm31 °FOvercast.8 mph45%30.39 "Hg10 mi
2:53 pm32 °FScattered clouds.10 mph45%30.37 "Hg10 mi
1:53 pm32 °FOvercast.14 mph45%30.38 "Hg10 mi
12:53 pm31 °FOvercast.12 mph49%30.38 "Hg10 mi
11:53 am31 °FBroken clouds.12 mph52%30.39 "Hg10 mi
10:53 am30 °FPartly sunny.13 mph61%30.40 "Hg10 mi
9:53 am29 °FOvercast.9 mph79%30.40 "Hg10 mi
8:53 am27 °FPassing clouds.5 mph85%30.37 "Hg10 mi
7:53 am27 °FOvercast.10 mph85%30.36 "Hg10 mi
6:53 am26 °FMostly cloudy.7 mph88%30.34 "Hg10 mi
5:53 am26 °FMostly cloudy.10 mph88%30.33 "Hg10 mi
Weather by CustomWeather, © 2016

See weather overviewHow to use our weather pages